Regional Weather Roundup
Issued by NWS Charleston, SC

Current Version | Previous Version | Graphics & Text | Print | Product List | Glossary On
Versions: 1 2 3 4 5 6 7 8 9 10 11 12 13 14 15 16 17 18 19 20 21 22 23 24 25 26 27 28 29 30 31 32 33 34 35 36 37 38 39 40 41 42 43 44 45 46 47 48 49 50
000 ASUS42 KCHS 312112 RWRCHS REGIONAL WEATHER ROUNDUP NATIONAL WEATHER SERVICE CHARLESTON SC 500 PM EDT MON AUG 31 2015 NOTE: "FAIR" INDICATES FEW OR NO CLOUDS BELOW 12,000 FEET WITH NO SIGNIFICANT WEATHER AND/OR OBSTRUCTIONS TO VISIBILITY. NOT ALL STATIONS ARE QUALITY CONTROLLED BY THE NATIONAL WEATHER SERVICE. USE DATA WITH CAUTION...ESPECIALLY DEWPOINT OBSERVATIONS. SCZ027-030-031-034>040-042>050-312200- ...SOUTHEAST SOUTH CAROLINA... CITY SKY/WX TMP DP RH WIND PRES REMARKS N CHARLESTON PTSUNNY 87 73 62 NW8 30.03S HX 94 WATERFRONT PRK N/A 86 75 69 CALM 30.00S HX 95 MOUNT PLEASANT LGT RAIN 88 73 62 NW8 30.02S HX 96 JOHNS ISLAND MOCLDY 90 75 62 CALM 30.03R HX 100 PINOPOLIS N/A 86 73 66 VRB3 29.97R HX 93 MONCKS CORNER FAIR 86 72 62 N5 30.03S HX 92 SUMMERVILLE FAIR 88 73 62 NW8 30.04S HX 96 BEAUFORT MCAS PTSUNNY 85 74 69 NW7 30.05S HX 92 BEAUFORT ARPT MOCLDY 86 73 66 NW5 30.04R HX 93 HILTON HEAD IS PTSUNNY 84 73 70 NW6 30.05F HX 91 WALTERBORO CLOUDY 86 72 62 NW8 30.05S HX 92 ALLENDALE MOCLDY 82 72 69 N5 30.05S ...SOUTHERN MIDLANDS AND PEE DEE... CITY SKY/WX TMP DP RH WIND PRES REMARKS GEORGETOWN NOT AVBL KINGSTREE NOT AVBL ORANGEBURG PTSUNNY 84 69 60 CALM 30.04F BARNWELL MOCLDY 84 72 65 CALM 30.06S AIKEN NOT AVBL MANNING MOCLDY 82 68 61 NW3 30.03F COLUMBIA FAIR 88 67 49 SW7 30.03F HX 91 SUMTER PTSUNNY 84 69 59 NE5 30.01F FLORENCE FAIR 84 71 65 NW8 30.03S MYRTLE BEACH PTSUNNY 81 73 78 CALM 30.04S N MYRTLE BEACH LGT RAIN 78 75 90 MISG 30.03R FOG $$ GAZ063-065-086>088-099>101-113>116-118-119-134>141-150-312200- ...SOUTHEAST GEORGIA... CITY SKY/WX TMP DP RH WIND PRES REMARKS SAVANNAH ARPT PTSUNNY 85 72 65 CALM 30.05S HX 91 HUNTER AAF FAIR 86 78 76 N2 30.02F HX 98 FORT STEWART FAIR 85 71 62 VRB1 30.02F HX 91 STATESBORO CLOUDY 80 78 94 W5 30.06F SYLVANIA CLOUDY 83 75 78 CALM 30.07S HX 90 CLAXTON NOT AVBL ...CSRA...CENTRAL AND FAR SOUTHEAST GEORGIA... CITY SKY/WX TMP DP RH WIND PRES REMARKS THOMSON FAIR 83 73 69 CALM 30.12S AUGUSTA-BUSH FAIR 84 68 58 NW5 30.05F AUGUSTA-DANIEL FAIR 93 68 43 VRB3 30.07F HX 97 SWAINSBORO MOCLDY 84 68 58 CALM 30.07F VIDALIA FAIR 82 72 69 NE8 30.07F EASTMAN MOCLDY 88 70 55 NE3 30.07F HX 93 HAZLEHURST FAIR 87 72 61 NE5 30.04F HX 93 ALMA FAIR 89 68 49 NW7 30.04F HX 93 WAYCROSS FAIR 91 75 58 N7 30.03F HX 101 JESUP FAIR 90 72 55 N3 30.04F HX 96 BAXLEY FAIR 88 72 58 N9 30.04F HX 94 BRUNSWICK FAIR 88 77 70 E7 30.04F HX 100 SAINT SIMONS FAIR 85 74 69 E10 30.04S HX 92 $$ SCZ027-028-034-036>038-045-046-048>050-GAZ119-141-312200- ...LAKE AND SUPPLEMENTAL COASTAL OBSERVATIONS... STATION/POSITION TIME TEMP WIND PRES WAVE SWELL AIR SEA DIR/SP/G HT/PER HT/PER/DIR (UTC) (F) (DEG/KT/KT) (MB) (FT/S) (FT/S/D) UPR LAKE MARION NOT AVBL WINYAH BAY NOT AVBL LAKE MURRAY 2000 82 200/ 8/ 8 1016.9F ACE BASIN NERRS NOT AVBL FORT PULASKI 2000 82 83 280/ 6/ 7 1018.0F SAPELO ISLAND 2000 87 80/ 7 1017.0F $$ ANZ835-935-AMZ111-154-330-350-352-354-370-450-454-472-312200- ...C-MAN AND BUOY OBSERVATIONS... STATION/POSITION TIME TEMP WIND PRES WAVE SWELL AIR SEA DIR/SP/G HT/PER HT/PER/DIR (UTC) (F) (DEG/KT/KT) (MB) (FT/S) (FT/S/D) BUOY 41004 2050 81 83 270/ 10/ 12 1016.4R 5/ 9 5/ 9 BUOY 41008 2050 82 86 70/ 6/ 8 1017.7F 3/ 9 3/110/ 9 FOLLY BEACH CMAN 2000 84 160/ 3/ 4 1017.0F CAPERS NEARSHORE 2008 82 210/ 6/ 8 1016.8F FRIPP NEARSHORE 2000 87 200/ 4/ 4 1017.1F STATION/POSITION TIME TEMP WIND PRES WAVE SWELL AIR SEA DIR/SP/G HT/PER HT/PER/DIR (UTC) (F) (DEG/KT/KT) (MB) (FT/S) (FT/S/D) 5E ST. MARYS GA 2021 88 N/A 3/ 9 FRYING PAN BUOY 2050 81 81 220/ 16/ 17 1017.2R 4/ 5 2/ 90/ 9 BUOY 41025 2050 78 84 170/ 8/ 10 1019.0F 3/ 9 3/110/ 9 CAPE LOOKOUT NC 2000 77 130/ 7/ 8 1018.2F BUOY 41002 2050 84 84 190/ 14/ 16 1018.7R 4/ 7 3/150/ 7 BUOY 41010 2020 85 86 170/ 8/ 10 1018.0F ST AUGUSTINE FL 2100 83 85 100/ 8/ 9 1018.0R $$

USA.gov is the U.S. government's official web portal to all federal, state and local government web resources and services.